[[{"header":{"parameterUnit":"m.s-1","parameterCategory":1,"la1":30.2991,"la2":30.254,"lo1":-89.0895,"lo2":-89.0444,"dy":0.0017,"dx":0.0017,"nx":28,"ny":28,"refTime":"2025-04-04T03:00:00:Z","depth":0,"parameterNumber":2,"parameterNumberName":"U-component_of_WINDS"},"data":[0,0,0,0,0,0,0,0,0,0,0,0,0,0,0,0,0,0,0,0,0,0,0,0,0,0,0,0,0,0,0,0,0,0,0,0,0,0,0,0,0,0,0,0,0,0,0,0,0,0,0,0,0,0,0,0,0,0,-5.2641,-5.2642,0,-5.2701,-5.2701,-5.2702,-5.2673,-5.2672,-5.267,-5.2669,-5.2727,-5.273,-5.2733,0,0,0,0,0,0,0,0,0,0,0,0,0,-5.25,-5.2503,-5.2641,-5.2642,-5.2642,-5.2701,-5.2701,-5.2702,-5.2673,-5.2672,-5.267,-5.2668,-5.2726,-5.273,-5.2733,0,0,0,0,0,0,0,0,0,0,0,0,0,-5.256,-5.2503,-5.2641,-5.2635,-5.2635,-5.27,-5.2701,-5.2702,-5.2674,-5.2671,-5.2669,-5.2667,-5.2725,-5.2729,-5.2734,-5.2807,0,0,-5.2747,-5.2749,0,0,0,0,0,0,0,0,-5.2557,-5.2566,-5.2635,-5.2636,-5.2636,-5.2677,-5.2673,-5.2737,-5.2674,-5.2659,-5.2669,-5.2666,-5.2712,-5.2717,-5.2734,-5.281,-5.2812,-5.2748,-5.275,-5.2752,-5.2754,0,0,0,0,0,0,0,-5.2553,-5.2563,-5.2664,-5.2636,-5.2637,-5.2629,-5.2635,-5.2685,-5.2698,-5.266,-5.2658,-5.2666,-5.2712,-5.2729,-5.2735,-5.2813,-5.2748,-5.2752,-5.2754,-5.2756,-5.2952,-5.2955,0,0,0,0,0,0,-5.2549,-5.256,-5.2663,-5.2666,-5.259,-5.2633,-5.264,-5.2666,-5.2697,-5.27,-5.2668,-5.2664,-5.2723,-5.273,-5.2737,-5.2824,-5.2752,-5.2756,-5.2759,-5.295,-5.2953,-5.2955,0,0,0,0,0,0,-5.2546,-5.2559,-5.266,-5.2612,-5.2625,-5.2638,-5.2668,-5.2669,-5.2686,-5.2703,-5.2705,-5.2683,-5.2721,-5.273,-5.279,-5.2825,-5.2758,-5.2763,-5.2947,-5.2951,-5.2954,-5.2999,0,0,0,0,0,0,-5.2542,-5.2558,-5.2586,-5.2613,-5.2627,-5.2713,-5.267,-5.2671,-5.2694,-5.269,-5.2718,-5.272,-5.272,-5.2783,-5.2794,-5.283,-5.2766,-5.2943,-5.2948,-5.2953,-5.2994,-5.3003,-5.3012,0,0,0,0,0,-5.2537,-5.2596,-5.2588,-5.26,-5.2663,-5.2715,-5.2723,-5.2722,-5.2697,-5.2725,-5.2736,-5.2719,-5.2821,-5.279,-5.2802,-5.2839,-5.2941,-5.2947,-5.2953,-5.299,-5.3002,-5.3011,0,0,0,0,0,0,-5.2571,-5.2599,-5.259,-5.266,-5.2685,-5.271,-5.2745,-5.2735,-5.2767,-5.2762,-5.2759,-5.2766,-5.2827,-5.284,-5.2805,-5.2912,-5.2877,-5.2885,-5.2901,-5.2912,-5.2921,-5.2915,-5.277,0,0,0,0,0,-5.2587,-5.2627,-5.2649,-5.2708,-5.2722,-5.2732,-5.2754,-5.2752,-5.2778,-5.2788,-5.2803,-5.2828,-5.2866,-5.289,-5.2926,-5.2997,-5.3002,-5.3029,-5.3038,-5.3045,-5.3051,-5.3089,-5.3101,-5.2974,-5.2974,-5.2974,0,0,-5.2619,-5.2639,-5.2665,-5.2715,-5.2735,-5.2776,-5.2741,-5.2786,-5.2815,-5.2795,-5.2851,-5.2864,-5.2892,-5.2957,-5.2987,-5.2969,-5.3088,-5.3052,-5.3058,-5.306,-5.3096,-5.3108,-5.3118,-5.2978,-5.2977,-5.2977,0,0,-5.2698,-5.2718,-5.2769,-5.279,-5.2821,-5.2827,-5.284,-5.2867,-5.2874,-5.2932,-5.2917,-5.2952,-5.3017,-5.3037,-5.3056,-5.3145,-5.313,-5.3157,-5.3202,-5.3238,-5.3248,-5.3257,-5.3287,-5.3298,-5.3164,-5.3164,-5.3164,0,-5.2733,-5.2795,-5.2796,-5.2842,-5.2865,-5.285,-5.29,-5.292,-5.2961,-5.2976,-5.2957,-5.3038,-5.3056,-5.3125,-5.3147,-5.3164,-5.3177,-5.3152,-5.3247,-5.3256,-5.3264,-5.3292,-5.3304,-5.3167,-5.3167,-5.3166,-5.3166,0,-5.2837,-5.288,-5.2917,-5.2957,-5.2984,-5.3033,-5.304,-5.3068,-5.3064,-5.3072,-5.3131,-5.3152,-5.3191,-5.3208,-5.3205,-5.3278,-5.3266,-5.3247,-5.3211,-5.3279,-5.3305,-5.3317,-5.3171,-5.317,-5.3169,-5.3168,0,0,-5.2935,-5.2977,-5.2991,-5.3009,-5.3042,-5.3075,-5.3123,-5.3163,-5.3185,-5.3215,-5.3253,-5.331,-5.3293,-5.3314,-5.3313,-5.3346,-5.3413,-5.3323,-5.3323,-5.3337,-5.3493,-5.3505,-5.3517,-5.3405,-5.3407,-5.3409,-5.349,0,-5.3015,-5.3099,-5.3102,-5.3179,-5.3218,-5.3205,-5.3247,-5.3272,-5.3282,-5.3316,-5.3327,-5.3366,-5.3342,-5.3354,-5.3387,-5.3398,-5.3444,-5.3393,-5.3439,-5.3441,-5.343,-5.3532,-5.3544,-5.3619,-5.35,-5.3502,-5.3504,0,-5.3119,-5.3152,-5.3232,-5.3261,-5.3277,-5.3315,-5.3351,-5.3385,-5.3413,-5.3418,-5.3443,-5.3437,-5.3485,-5.345,-5.3516,-5.3481,-5.3501,-5.351,-5.3513,-5.3514,-5.3474,-5.3534,-5.3644,-5.3654,-5.352,-5.3519,-5.3518,0,-5.318,-5.3245,-5.3302,-5.3318,-5.3353,-5.3379,-5.3395,-5.3421,-5.3444,-5.3476,-5.3491,-5.3529,-5.3548,-5.3577,-5.3581,-5.3556,-5.3647,-5.3612,-5.3651,-5.3651,-5.3668,-5.3666,-5.378,-5.3685,-5.3685,-5.3685,-5.3685,0,-5.3267,-5.3316,-5.333,-5.3364,-5.3419,-5.3422,-5.3476,-5.349,-5.3513,-5.355,-5.3542,-5.3576,-5.3581,-5.3616,-5.362,-5.3673,-5.3683,-5.3687,-5.3687,-5.3686,-5.3685,-5.3696,-5.369,-5.3688,-5.3687,-5.3687,-5.3686,0,-5.3343,-5.3355,-5.3415,-5.3444,-5.3452,-5.3491,-5.3515,-5.3548,-5.3558,-5.3604,-5.3615,-5.363,-5.3672,-5.368,-5.3728,-5.3731,-5.3793,-5.3789,-5.3784,-5.3782,-5.3819,-5.3815,-5.3942,-5.3958,-5.3856,-5.3857,-5.3858,0,-5.3397,-5.3435,-5.3468,-5.3492,-5.3509,-5.3549,-5.3573,-5.3579,-5.3604,-5.364,-5.3668,-5.3708,-5.3741,-5.3807,-5.3822,-5.3859,-5.3854,-5.3896,-5.3859,-5.3857,-5.3852,-5.3849,-5.3852,-5.3902,-5.3903,-5.3904,-5.3905,0,-5.349,-5.3494,-5.353,-5.3568,-5.3598,-5.3628,-5.3656,-5.3676,-5.3686,-5.3715,-5.3757,-5.3783,-5.3833,-5.3873,-5.391,-5.3926,-5.3916,-5.3917,-5.3927,-5.3925,-5.392,-5.3921,-5.38,-5.3913,-5.3912,-5.3912,-5.3911,-5.3911,-5.3555,-5.3588,-5.3616,-5.3656,-5.3679,-5.3706,-5.3738,-5.3753,-5.3789,-5.383,-5.3832,-5.3878,-5.3905,-5.3954,-5.3972,-5.4008,-5.3994,-5.401,-5.4013,-5.4016,-5.4019,-5.3917,-5.4015,-5.4015,-5.4015,-5.4015,-5.4014,0,-5.3646,-5.3664,-5.3701,-5.3742,-5.3773,-5.3765,-5.3796,-5.3822,-5.3863,-5.389,-5.3923,-5.3972,-5.4011,-5.403,-5.4068,-5.4093,-5.4089,-5.4102,-5.4099,-5.4102,-5.403,-5.4016,-5.4104,-5.4104,-5.4104,-5.4104,-5.4104,-5.4104,-5.3696,-5.3751,-5.3758,-5.3824,-5.3842,-5.3887,-5.3906,-5.3931,-5.3952,-5.4007,-5.404,-5.4052,-5.4076,-5.4116,-5.4151,-5.4156,-5.4169,-5.4184,-5.4186,-5.4117,-5.4108,-5.4099,-5.4086,-5.4187,-5.4187,-5.4255,-5.4256,-5.4256]},{"header":{"parameterUnit":"m.s-1","parameterCategory":1,"la1":30.2991,"la2":30.254,"lo1":-89.0895,"lo2":-89.0444,"dy":0.0017,"dx":0.0017,"nx":28,"ny":28,"refTime":"2025-04-04T03:00:00:Z","depth":0,"parameterNumber":3,"parameterNumberName":"V-component_of_WINDS"},"data":[0,0,0,0,0,0,0,0,0,0,0,0,0,0,0,0,0,0,0,0,0,0,0,0,0,0,0,0,0,0,0,0,0,0,0,0,0,0,0,0,0,0,0,0,0,0,0,0,0,0,0,0,0,0,0,0,0,0,3.7897,3.7898,0,3.7983,3.7984,3.7985,3.7994,3.7993,3.7992,3.7991,3.8078,3.8082,3.8085,0,0,0,0,0,0,0,0,0,0,0,0,0,3.7743,3.7745,3.7897,3.7898,3.7899,3.7983,3.7984,3.7985,3.7994,3.7993,3.7992,3.7991,3.8077,3.8081,3.8085,0,0,0,0,0,0,0,0,0,0,0,0,0,3.7817,3.7746,3.7897,3.7914,3.7916,3.7983,3.7984,3.7986,3.7994,3.7993,3.7991,3.799,3.8076,3.8081,3.8085,3.8141,0,0,3.81,3.8102,0,0,0,0,0,0,0,0,3.7813,3.7823,3.791,3.7913,3.7916,3.7976,3.7962,3.8038,3.7994,3.7964,3.7991,3.799,3.8046,3.8053,3.8072,3.8145,3.8149,3.81,3.8103,3.8105,3.8107,0,0,0,0,0,0,0,3.7808,3.7819,3.7931,3.7912,3.7915,3.7918,3.7927,3.7976,3.8011,3.7967,3.7968,3.7978,3.8047,3.8067,3.8074,3.815,3.81,3.8104,3.8107,3.8109,3.8278,3.8279,0,0,0,0,0,0,3.7799,3.7815,3.7929,3.7934,3.786,3.7921,3.7932,3.7958,3.8011,3.8018,3.7979,3.7978,3.806,3.8068,3.8077,3.8148,3.8105,3.811,3.8112,3.8276,3.8278,3.828,0,0,0,0,0,0,3.7796,3.7809,3.7925,3.7875,3.789,3.7925,3.7955,3.7961,3.7981,3.802,3.8026,3.7993,3.8059,3.807,3.8126,3.8151,3.8112,3.8116,3.8274,3.8277,3.8279,3.8289,0,0,0,0,0,0,3.7792,3.7808,3.7829,3.7875,3.7892,3.7972,3.7957,3.7963,3.7989,3.7989,3.8035,3.8041,3.8059,3.8119,3.8131,3.8157,3.812,3.8272,3.8275,3.8278,3.8287,3.8292,3.8296,0,0,0,0,0,3.7786,3.7828,3.783,3.7844,3.7919,3.7974,3.7983,3.8003,3.7991,3.8013,3.8039,3.804,3.8146,3.8124,3.8138,3.8166,3.827,3.8274,3.8278,3.8285,3.8291,3.8296,0,0,0,0,0,0,3.7783,3.7834,3.7837,3.7895,3.793,3.7975,3.8003,3.8008,3.8047,3.8045,3.8067,3.8077,3.8133,3.8155,3.813,3.8224,3.8207,3.8214,3.8208,3.8214,3.8219,3.8213,3.8124,0,0,0,0,0,3.7789,3.7829,3.7871,3.7918,3.7936,3.7967,3.7991,3.8003,3.804,3.8055,3.8084,3.812,3.8162,3.8189,3.823,3.829,3.8302,3.8316,3.8321,3.8324,3.833,3.8367,3.8375,3.8292,3.8292,3.8292,0,0,3.7802,3.7835,3.7859,3.7919,3.7947,3.7989,3.7979,3.8022,3.8054,3.8061,3.8117,3.814,3.8181,3.8241,3.8268,3.8261,3.8356,3.8329,3.8332,3.8336,3.8371,3.8379,3.8386,3.8294,3.8294,3.8293,0,0,3.7848,3.7875,3.7919,3.7949,3.7993,3.8013,3.8024,3.8069,3.8085,3.814,3.8148,3.8186,3.8256,3.8287,3.8312,3.8372,3.8376,3.8384,3.8409,3.8444,3.8451,3.8457,3.8481,3.8489,3.839,3.839,3.839,0,3.7858,3.7921,3.7941,3.7986,3.8013,3.8023,3.8068,3.8095,3.815,3.8169,3.816,3.8251,3.828,3.8348,3.8363,3.8382,3.8396,3.8379,3.8448,3.8454,3.846,3.8483,3.8492,3.8391,3.8391,3.839,3.839,0,3.7934,3.7977,3.8007,3.8061,3.8092,3.8136,3.8164,3.8193,3.8203,3.8225,3.8283,3.8318,3.8367,3.8384,3.8393,3.8454,3.8449,3.8443,3.8427,3.8469,3.8491,3.85,3.8392,3.8392,3.8391,3.8391,0,0,3.7979,3.8045,3.8056,3.8082,3.8132,3.8167,3.8213,3.8261,3.8287,3.8324,3.8365,3.8426,3.8423,3.8451,3.8464,3.8495,3.8544,3.8486,3.8488,3.8498,3.8616,3.8621,3.8631,3.8546,3.8548,3.8549,3.8613,0,3.8032,3.8114,3.8135,3.8206,3.8248,3.8258,3.8299,3.8335,3.8357,3.8396,3.842,3.8465,3.8455,3.8473,3.8504,3.8531,3.8568,3.8527,3.8586,3.8587,3.8576,3.8642,3.8647,3.8706,3.8622,3.8623,3.8624,0,3.8104,3.8145,3.8221,3.8268,3.8287,3.8323,3.8371,3.8408,3.8449,3.8463,3.8496,3.8507,3.8557,3.8537,3.8608,3.8579,3.8604,3.8622,3.8624,3.8632,3.8609,3.8653,3.8724,3.8734,3.8638,3.8637,3.8636,0,3.8133,3.8207,3.8262,3.8284,3.834,3.8366,3.839,3.843,3.8459,3.8501,3.8521,3.8567,3.8593,3.863,3.8654,3.8637,3.8723,3.8705,3.8738,3.8737,3.8756,3.8755,3.8835,3.877,3.8769,3.8769,3.8769,0,3.8191,3.8238,3.8277,3.8311,3.8364,3.8387,3.8439,3.8464,3.85,3.8541,3.8552,3.859,3.8618,3.866,3.8679,3.8736,3.8747,3.8761,3.8765,3.8761,3.8759,3.8779,3.8776,3.8772,3.8771,3.8771,3.877,0,3.8233,3.826,3.8322,3.8371,3.8384,3.8421,3.8464,3.8498,3.8521,3.8572,3.8585,3.8622,3.8672,3.8699,3.8761,3.8774,3.8839,3.884,3.8825,3.8828,3.886,3.8857,3.8956,3.8972,3.8894,3.8895,3.8895,0,3.8269,3.8305,3.8358,3.8387,3.8412,3.8457,3.8487,3.8512,3.8543,3.8595,3.8624,3.8674,3.8717,3.8797,3.8829,3.8878,3.8882,3.8913,3.8889,3.8884,3.8885,3.8884,3.8889,3.8918,3.8918,3.8919,3.892,0,3.8331,3.8344,3.8387,3.8436,3.8472,3.8511,3.855,3.8573,3.8605,3.8639,3.8691,3.8724,3.8789,3.8841,3.8892,3.8918,3.8925,3.8927,3.8938,3.8934,3.8925,3.8933,3.8839,3.8925,3.8924,3.8924,3.8923,3.8923,3.8373,3.8407,3.845,3.8499,3.8531,3.8568,3.8604,3.8632,3.8676,3.8731,3.8743,3.8799,3.8842,3.8912,3.894,3.8984,3.8978,3.8993,3.8997,3.9001,3.9004,3.8916,3.8994,3.8993,3.8993,3.8993,3.8993,0,3.8438,3.8467,3.8512,3.8567,3.8606,3.8609,3.8653,3.8685,3.8734,3.8774,3.8816,3.8877,3.8927,3.8964,3.9016,3.9045,3.905,3.9058,3.9057,3.9064,3.9005,3.8992,3.9053,3.9053,3.9053,3.9053,3.9053,3.9053,3.8477,3.8535,3.8553,3.8629,3.8657,3.8713,3.8738,3.8773,3.8805,3.8873,3.8915,3.8939,3.8978,3.9033,3.9081,3.909,3.911,3.9118,3.9129,3.9074,3.9067,3.9061,3.9049,3.9122,3.9122,3.9184,3.9184,3.9185]}]]